User: anonymous   Login
Location: Songkhla
(7.2000°N, 100.6000°E)
Time: 09:28:57
(UTC+07:00)
Language:

ITUPSAT 1 - Orbit

View from above orbital plane
View from above orbital plane
View from above satellite
View from above satellite

Ground track
Ground track

The orbit data is extracted from the following two-line orbital elements,

1 35935U 09051E   21206.54085299  .00000129  00000-0  40660-4 0  9995
2 35935  98.6072  49.6893 0007943 354.3208   5.7897 14.55742630628319
Epoch (UTC): 25 July 2021 12:58:49
Eccentricity: 0.0007943
inclination: 98.6072°
perigee height: 701 km
apogee height: 712 km
right ascension of ascending node: 49.6893°
argument of perigee: 354.3208°
revolutions per day: 14.55742630
mean anomaly at epoch: 5.7897°
orbit number at epoch: 62831

The dashed part of the orbit path shows where the satellite is in the earth's shadow,  

DLR